IBUKIYAMA Weather Reports


time (UTC)temp
C
wind
direction
speed
KPH
gust
KPH
rain 1hr
cm
rain 24hr
cm
rain mn
cm
humidity
%
barometer
mb
20260505095017 6 140 24.1 43.5 0.00 0.00 0.00 86 879.2
20260505094041 7 118 27.4 41.8 0.00 0.00 0.00 88 879.0
20260505093045 7 117 25.7 40.2 0.00 0.00 0.00 89 878.6
20260505092038 7 135 24.1 38.6 0.00 0.00 0.00 89 878.4
20260505091019 8 359 20.9 37.0 0.00 0.00 0.00 89 878.5
20260505090027 8 119 24.1 37.0 0.00 0.00 0.00 86 878.8
20260505085022 9 122 19.3 32.2 0.00 0.00 0.00 83 878.9
20260505084045 10 117 17.7 29.0 0.00 0.00 0.00 79 878.8
20260505083029 10 116 16.1 29.0 0.00 0.00 0.00 77 878.8
20260505082029 10 118 17.7 29.0 0.00 0.00 0.00 75 878.9
20260505081052 11 114 16.1 25.7 0.00 0.00 0.00 72 878.6
20260505080051 11 136 17.7 27.4 0.00 0.00 0.00 70 878.8
20260505075034 11 91 17.7 29.0 0.00 0.10 0.00 69 878.8
20260505074038 12 129 16.1 29.0 0.00 0.10 0.00 66 878.9
20260505073035 11 116 17.7 27.4 0.00 0.10 0.00 63 878.9
20260505072037 11 112 16.1 25.7 0.00 0.10 0.00 61 878.8
20260505071019 12 135 16.1 29.0 0.00 0.10 0.00 62 878.7
20260505070037 12 117 17.7 27.4 0.00 0.10 0.00 60 878.6
20260505065035 12 126 16.1 32.2 0.00 0.20 0.00 59 878.8
20260505064020 12 119 20.9 33.8 0.00 0.20 0.00 52 878.7
20260505063038 12 104 17.7 29.0 0.00 0.20 0.00 53 878.8
20260505062037 13 113 19.3 29.0 0.00 0.20 0.00 50 878.9
20260505061032 13 107 12.9 27.4 0.00 0.20 0.00 48 878.8
20260505060032 13 121 17.7 33.8 0.00 0.20 0.00 48 878.7
20260505055020 13 101 19.3 29.0 0.00 0.20 0.00 47 878.8
20260505054037 13 103 16.1 29.0 0.00 0.20 0.00 48 878.7
20260505053018 13 85 19.3 27.4 0.00 0.20 0.00 44 878.7
20260505052037 13 100 16.1 25.7 0.00 0.20 0.00 47 878.7
20260505051047 13 359 9.7 20.9 0.00 0.20 0.00 55 878.8
20260505041036 11 317 6.4 14.5 0.00 0.20 0.00 63 878.5
20260505040112 11 131 3.2 24.1 0.00 0.20 0.00 67 878.7
20260505035045 11 359 6.4 37.0 0.00 0.20 0.00 70 878.6
20260505034042 11 276 4.8 12.9 0.00 0.20 0.00 70 878.6
20260505033059 10 359 0.0 9.7 0.00 0.20 0.00 72 878.5
20260505032055 10 86 3.2 9.7 0.00 0.20 0.00 75 878.5
20260505031110 10 359 1.6 9.7 0.00 0.20 0.00 78 878.5
20260505030037 10 359 3.2 9.7 0.00 0.20 0.00 77 878.5
20260505025036 10 334 1.6 9.7 0.00 0.20 0.00 78 878.4
20260505024046 10 359 1.6 9.7 0.00 0.20 0.00 79 878.5
20260505023030 9 359 1.6 9.7 0.00 0.20 0.00 78 878.4
20260505022043 9 359 1.6 8.0 0.00 0.20 0.00 77 878.5
20260505021059 8 359 3.2 8.0 0.00 0.20 0.00 79 878.7
20260505020043 8 330 3.2 12.9 0.00 0.20 0.00 68 878.6
20260505015030 8 359 4.8 9.7 0.00 0.20 0.00 82 878.7
20260505014105 7 359 3.2 8.0 0.00 0.20 0.00 81 878.7
20260505013035 7 33 4.8 9.7 0.00 0.20 0.00 79 878.6
20260505012047 7 359 1.6 6.4 0.00 0.20 0.00 79 878.6
20260505011035 7 23 1.6 9.7 0.00 0.20 0.00 75 878.5
20260505010027 7 359 3.2 8.0 0.00 0.20 0.00 73 878.6
20260505005025 6 32 0.0 8.0 0.00 0.20 0.00 79 878.5
20260505004025 6 359 3.2 8.0 0.00 0.20 0.00 68 878.4
20260505003027 7 324 4.8 9.7 0.00 0.20 0.00 67 878.2
20260505002021 7 43 1.6 12.9 0.00 0.20 0.00 59 878.2
20260505001047 6 359 3.2 9.7 0.00 0.20 0.00 62 878.0
20260505000031 7 28 6.4 14.5 0.00 0.20 0.00 51 878.2
20260504235034 7 359 4.8 14.5 0.00 0.20 0.00 53 878.0
20260504234052 7 359 6.4 14.5 0.00 0.20 0.00 54 877.9
20260504233054 7 52 3.2 17.7 0.00 0.20 0.00 53 877.8
20260504232050 7 94 6.4 16.1 0.00 0.20 0.00 55 877.8
20260504231021 6 359 6.4 12.9 0.00 0.20 0.00 59 877.7
20260504230024 5 57 8.0 14.5 0.00 0.20 0.00 57 877.5
20260504225019 5 44 3.2 14.5 0.00 0.20 0.00 58 877.6
20260504224042 5 359 1.6 8.0 0.00 0.20 0.00 59 877.5
20260504223040 5 359 1.6 14.5 0.00 0.20 0.00 61 877.5
20260504222041 4 359 4.8 14.5 0.00 0.20 0.00 61 877.3
20260504221039 4 359 8.0 20.9 0.00 0.20 0.00 63 877.3
20260504220030 3 359 8.0 14.5 0.00 0.20 0.00 62 877.0
20260504215028 3 41 4.8 14.5 0.00 0.20 0.00 65 876.9
20260504214025 3 50 3.2 12.9 0.00 0.20 0.00 69 876.8
20260504213024 2 40 6.4 14.5 0.00 0.20 0.00 68 876.6
20260504212016 2 34 1.6 16.1 0.00 0.20 0.00 70 876.3
20260504211044 2 359 1.6 14.5 0.00 0.20 0.00 70 876.1
20260504210044 2 359 4.8 14.5 0.00 0.20 0.00 70 876.0
20260504205035 2 303 3.2 12.9 0.00 0.20 0.00 72 875.7
20260504204034 2 359 6.4 16.1 0.00 0.20 0.00 72 875.4
20260504203036 2 293 3.2 14.5 0.00 0.20 0.00 75 875.4
20260504202035 2 359 4.8 20.9 0.00 0.20 0.00 74 875.0
20260504201034 1 309 1.6 20.9 0.00 0.20 0.00 76 874.9
20260504200053 1 359 4.8 27.4 0.00 0.20 0.00 77 874.8
20260504195023 1 359 4.8 19.3 0.00 0.20 0.00 79 874.7
20260504194020 1 359 9.7 19.3 0.00 0.20 0.00 81 874.5
20260504193024 1 346 4.8 16.1 0.00 0.20 0.00 85 874.4
20260504192025 1 359 6.4 17.7 0.00 0.20 0.00 86 874.3
20260504191028 1 359 8.0 16.1 0.00 0.20 0.00 86 874.3
20260504190053 1 311 6.4 20.9 0.00 0.20 0.00 86 874.2
20260504185026 1 335 8.0 20.9 0.00 0.30 0.00 86 874.1
20260504184027 1 359 6.4 17.7 0.00 0.30 0.00 88 874.0
20260504183028 1 359 6.4 19.3 0.00 0.30 0.00 91 874.0
20260504182044 1 314 6.4 17.7 0.00 0.30 0.00 93 873.8
20260504181024 0 328 9.7 16.1 0.00 0.30 0.00 95 873.7
20260504180045 0 316 11.3 17.7 0.00 0.30 0.00 96 873.6
20260504175046 0 309 11.3 19.3 0.00 0.30 0.00 95 873.4
20260504174025 0 310 12.9 19.3 0.00 0.30 0.00 98 873.3
20260504173028 0 310 9.7 24.1 0.00 0.30 0.00 99 873.4
20260504172019 0 320 8.0 19.3 0.00 0.30 0.00 99 873.1
20260504171023 0 326 11.3 25.7 0.00 0.30 0.00 99 873.0
20260504151033 1 322 12.9 24.1 0.00 0.41 0.00 98 872.6
20260504141037 1 282 14.5 38.6 0.00 0.51 0.08 98 871.9